Hamilton, OH

7:59 AM EST on November 18, 2017 (GMT -0500)
Butler County Regional

Weather History for KHAO - March, 2014

Change the Weather History Date:

Tuesday, March 11, 2014

  Actual Average (KLUK) Record (KLUK)
Temperature  
Mean Temperature 58 °F -  
Max Temperature 77 °F 53 °F 80 °F (1990)
Min Temperature 42 °F 32 °F 16 °F (1979)
Degree Days  
Heating Degree Days 6    
Growing Degree Days 8 (Base 50)    
Moisture  
Dew Point 41 °F    
Average Humidity 54    
Maximum Humidity 76    
Minimum Humidity 27    
Precipitation  
Precipitation 0.00 in - - ()
Sea Level Pressure  
Sea Level Pressure 29.68 in    
Wind  
Wind Speed 4 mph (WSW)    
Max Wind Speed 9 mph    
Max Gust Speed -    
Visibility 10 miles    
Events Rain    
Averages and records for this station are not official NWS values.
T = Trace of Precipitation, MM = Missing Value Source: NWS Daily Summary

Daily Weather History Graph

Daily Weather History Graph

Search for Another Location

Airport or City:

Trip Planner

Search our weather history database for the weather conditions in past years. The results will help you decide how hot, cold, wet, or windy it might be!

Date:

Astronomy

Mar. 11, 2014 Rise Set
Actual Time 7:55 AM EDT 7:40 PM EDT
Civil Twilight 7:28 AM EDT 8:07 PM EDT
Nautical Twilight 6:57 AM EDT 8:38 PM EDT
Astronomical Twilight 6:26 AM EDT 9:10 PM EDT
Moon 3:17 PM EDT (3/11) 4:47 AM EDT (3/11)
Length of Visible Light 12h 38m
Length of Day
11h 45m
Waxing Gibbous, 78% of the Moon is Illuminated
Mar 11
Waxing Gibbous
Mar 16
Full
Mar 23
Last Quarter
Mar 30
New
Apr 7
First Quarter

Hourly Weather History & Observations

Time (EDT) Temp. Dew Point Humidity Pressure Visibility Wind Dir Wind Speed Gust Speed Precip Events Conditions
12:53 AM 42.1 °F 35.1 °F 76% 29.75 in 10.0 mi Calm Calm - N/A   Clear
1:53 AM 51.1 °F 36.0 °F 56% 29.74 in 10.0 mi WSW 4.6 mph - N/A   Clear
2:53 AM 51.1 °F 37.0 °F 59% 29.73 in 10.0 mi WSW 5.8 mph - N/A   Clear
3:53 AM 53.1 °F 37.9 °F 57% 29.73 in 10.0 mi WSW 5.8 mph - N/A   Clear
4:53 AM 53.1 °F 39.9 °F 61% 29.73 in 10.0 mi WSW 4.6 mph - N/A   Clear
5:53 AM 51.1 °F 39.9 °F 66% 29.73 in 10.0 mi SW 3.5 mph - N/A   Clear
6:53 AM 48.9 °F 39.9 °F 71% 29.73 in 10.0 mi Calm Calm - N/A   Clear
7:53 AM 48.9 °F 41.0 °F 74% 29.73 in 10.0 mi SSW 3.5 mph - N/A   Clear
8:53 AM 51.1 °F 43.0 °F 74% 29.74 in 10.0 mi Calm Calm - N/A   Clear
9:53 AM 55.9 °F 43.0 °F 62% 29.74 in 10.0 mi Variable 3.5 mph - N/A   Clear
10:53 AM 60.1 °F 44.1 °F 55% 29.74 in 10.0 mi Variable 5.8 mph - N/A   Clear
11:53 AM 62.1 °F 44.1 °F 52% 29.72 in 10.0 mi West 5.8 mph - N/A   Clear
12:53 PM 63.0 °F 44.1 °F 50% 29.70 in 10.0 mi WSW 5.8 mph - N/A   Clear
1:53 PM 66.9 °F 44.1 °F 44% 29.68 in 10.0 mi WSW 6.9 mph - N/A   Clear
2:53 PM 71.1 °F 44.1 °F 38% 29.64 in 10.0 mi WSW 9.2 mph - N/A   Clear
3:53 PM 75.0 °F 41.0 °F 29% 29.62 in 10.0 mi SW 6.9 mph - N/A   Clear
4:53 PM 75.0 °F 41.0 °F 29% 29.61 in 10.0 mi SW 6.9 mph - N/A   Clear
5:53 PM 73.9 °F 37.9 °F 27% 29.59 in 10.0 mi WSW 9.2 mph - N/A   Clear
6:53 PM 71.1 °F 39.0 °F 31% 29.58 in 10.0 mi WSW 5.8 mph - N/A   Clear
7:53 PM 60.1 °F 39.0 °F 46% 29.60 in 10.0 mi Calm Calm - N/A   Clear
8:53 PM 53.1 °F 39.0 °F 59% 29.61 in 10.0 mi Calm Calm - N/A   Clear
9:53 PM 57.0 °F 41.0 °F 55% 29.61 in 10.0 mi Calm Calm - N/A   Mostly Cloudy
10:53 PM 54.0 °F 44.1 °F 69% 29.60 in 10.0 mi Calm Calm - N/A   Overcast
11:53 PM 57.9 °F 41.0 °F 53% 29.60 in 10.0 mi South 3.5 mph - 0.00 in Rain Light Rain